When you browse on this site, cookies collect data to enhance your experience and personalize the content and advertising you see.
Visit our Privacy Policy to learn more. By continuing to use the site, you agree to this use of cookies and data.
  • In United Kingdom
  • List of Countries
  • For 7 days
  • Water Temperature
  • Satellite Maps
  • Weather Map
  • Weather Widgets
  • user-avatar
    Login

    Hourly Weather Pointe-Noire

    Today, 19 April, Friday

    Time Temperature Precipitation Wind Pressure Humidity
    00:00 +26°C° 0 mm 2 mps 720 mmHg 93%
    01:00 +25°C° 0 mm 2 mps 720 mmHg 94%
    02:00 +25°C° 0 mm 1 mps 720 mmHg 93%
    03:00 +25°C° 0 mm 1 mps 720 mmHg 93%
    04:00 +25°C° 0 mm 1 mps 720 mmHg 93%
    05:00 +25°C° 0 mm 1 mps 721 mmHg 93%
    06:00 +23°C° 0 mm 0 mps 721 mmHg 93%
    07:00 +23°C° 0 mm 0 mps 721 mmHg 93%
    08:00 +25°C° 0 mm 0 mps 722 mmHg 85%
    09:00 +28°C° 0 mm 1 mps 722 mmHg 77%
    10:00 +30°C° 0 mm 1 mps 722 mmHg 69%
    11:00 +32°C° 0 mm 1 mps 722 mmHg 61%
    12:00 +34°C° 0 mm 1 mps 721 mmHg 53%
    13:00 +36°C° 0 mm 1 mps 721 mmHg 45%
    14:00 +35°C° 0 mm 1 mps 720 mmHg 46%
    15:00 +35°C° 0 mm 1 mps 720 mmHg 47%
    16:00 +34°C° 0 mm 1 mps 719 mmHg 48%
    17:00 +32°C° 3.2 mm 1 mps 719 mmHg 62%
    18:00 +29°C° 3.2 mm 1 mps 719 mmHg 77%
    19:00 +26°C° 3.2 mm 1 mps 719 mmHg 91%
    20:00 +26°C° 2.5 mm 1 mps 720 mmHg 92%
    21:00 +26°C° 2.5 mm 1 mps 720 mmHg 93%
    22:00 +25°C° 2.5 mm 1 mps 721 mmHg 95%
    23:00 +25°C° 0 mm 1 mps 721 mmHg 95%

    Tomorrow, 20 April, Saturday

    Time Temperature Precipitation Wind Pressure Humidity
    00:00 +25°C° 0 mm 1 mps 721 mmHg 95%
    01:00 +23°C° 0 mm 0 mps 720 mmHg 95%
    02:00 +23°C° 0 mm 0 mps 720 mmHg 96%
    03:00 +23°C° 0 mm 0 mps 720 mmHg 97%
    04:00 +22°C° 0 mm 0 mps 720 mmHg 97%
    05:00 +23°C° 0 mm 0 mps 720 mmHg 97%
    06:00 +23°C° 0 mm 0 mps 720 mmHg 96%
    07:00 +23°C° 0 mm 0 mps 720 mmHg 96%
    08:00 +24°C° 1.7 mm 0 mps 721 mmHg 91%
    09:00 +26°C° 1.7 mm 0 mps 721 mmHg 86%
    10:00 +27°C° 1.7 mm 0 mps 722 mmHg 81%
    11:00 +30°C° 0.7 mm 1 mps 721 mmHg 76%
    12:00 +31°C° 0.7 mm 1 mps 721 mmHg 70%
    13:00 +31°C° 0.7 mm 1 mps 721 mmHg 64%
    14:00 +31°C° 0.2 mm 1 mps 720 mmHg 65%
    15:00 +31°C° 0.2 mm 1 mps 720 mmHg 65%
    16:00 +31°C° 0.2 mm 1 mps 719 mmHg 66%
    17:00 +27°C° 0 mm 0 mps 719 mmHg 71%
    18:00 +26°C° 0 mm 0 mps 720 mmHg 76%
    19:00 +25°C° 0 mm 0 mps 720 mmHg 81%
    20:00 +24°C° 0 mm 0 mps 720 mmHg 82%
    21:00 +24°C° 0 mm 0 mps 720 mmHg 84%
    22:00 +24°C° 0 mm 0 mps 721 mmHg 85%
    23:00 +23°C° 0 mm 0 mps 720 mmHg 87%

    Day after tomorrow, 21 April, Sunday

    Time Temperature Precipitation Wind Pressure Humidity
    00:00 +23°C° 0 mm 0 mps 720 mmHg 89%
    01:00 +23°C° 0 mm 0 mps 720 mmHg 91%
    02:00 +22°C° 0 mm 0 mps 720 mmHg 93%
    03:00 +22°C° 0 mm 0 mps 719 mmHg 96%
    04:00 +22°C° 0 mm 0 mps 719 mmHg 98%
    05:00 +22°C° 0 mm 0 mps 719 mmHg 96%
    06:00 +23°C° 0 mm 0 mps 719 mmHg 95%
    07:00 +23°C° 0 mm 0 mps 720 mmHg 94%
    08:00 +26°C° 0 mm 0 mps 720 mmHg 81%
    09:00 +30°C° 0 mm 1 mps 720 mmHg 69%
    10:00 +33°C° 0 mm 1 mps 721 mmHg 57%
    11:00 +35°C° 0 mm 1 mps 720 mmHg 51%
    12:00 +37°C° 0 mm 1 mps 719 mmHg 45%
    13:00 +37°C° 0 mm 0 mps 719 mmHg 40%
    14:00 +36°C° 0 mm 0 mps 718 mmHg 42%
    15:00 +35°C° 0 mm 0 mps 717 mmHg 44%
    16:00 +34°C° 0 mm 0 mps 717 mmHg 46%
    17:00 +32°C° 0 mm 0 mps 717 mmHg 52%
    18:00 +32°C° 0 mm 1 mps 717 mmHg 59%
    19:00 +30°C° 0 mm 1 mps 717 mmHg 66%
    20:00 +29°C° 0 mm 1 mps 718 mmHg 71%
    21:00 +28°C° 0 mm 1 mps 718 mmHg 76%
    22:00 +27°C° 0 mm 2 mps 719 mmHg 81%
    23:00 +27°C° 2.2 mm 2 mps 719 mmHg 86%

    22 April, Monday

    Time Temperature Precipitation Wind Pressure Humidity
    00:00 +26°C° 2.2 mm 2 mps 719 mmHg 90%
    01:00 +26°C° 2.2 mm 2 mps 719 mmHg 94%
    02:00 +26°C° 1.8 mm 2 mps 719 mmHg 94%
    03:00 +25°C° 1.8 mm 2 mps 718 mmHg 94%
    04:00 +25°C° 1.8 mm 1 mps 718 mmHg 95%
    05:00 +25°C° 0 mm 1 mps 719 mmHg 94%
    06:00 +25°C° 0 mm 1 mps 719 mmHg 94%
    07:00 +23°C° 0 mm 0 mps 719 mmHg 93%
    08:00 +26°C° 0 mm 0 mps 720 mmHg 83%
    09:00 +30°C° 0 mm 1 mps 720 mmHg 74%
    10:00 +32°C° 0 mm 1 mps 720 mmHg 64%
    11:00 +33°C° 0 mm 1 mps 720 mmHg 58%
    12:00 +34°C° 0 mm 1 mps 719 mmHg 53%
    13:00 +36°C° 0 mm 1 mps 718 mmHg 47%
    14:00 +36°C° 0 mm 1 mps 718 mmHg 48%
    15:00 +35°C° 0 mm 1 mps 717 mmHg 49%
    16:00 +35°C° 0 mm 1 mps 717 mmHg 49%
    17:00 +33°C° 0 mm 1 mps 717 mmHg 57%
    18:00 +31°C° 0 mm 1 mps 718 mmHg 66%
    19:00 +29°C° 0 mm 2 mps 718 mmHg 74%
    20:00 +29°C° 0 mm 2 mps 718 mmHg 79%
    21:00 +28°C° 0 mm 2 mps 719 mmHg 84%
    22:00 +27°C° 0 mm 2 mps 719 mmHg 88%
    23:00 +26°C° 0.8 mm 2 mps 719 mmHg 91%

    23 April, Tuesday

    Time Temperature Precipitation Wind Pressure Humidity
    00:00 +26°C° 0.8 mm 2 mps 719 mmHg 93%
    01:00 +26°C° 0.8 mm 2 mps 719 mmHg 95%
    02:00 +25°C° 0 mm 1 mps 718 mmHg 96%
    03:00 +25°C° 0 mm 1 mps 718 mmHg 96%
    04:00 +25°C° 0 mm 1 mps 718 mmHg 97%
    05:00 +25°C° 0 mm 1 mps 718 mmHg 96%
    06:00 +25°C° 0 mm 1 mps 719 mmHg 95%
    07:00 +26°C° 0 mm 1 mps 719 mmHg 94%
    08:00 +27°C° 0 mm 1 mps 719 mmHg 89%
    09:00 +28°C° 0 mm 1 mps 720 mmHg 84%
    10:00 +29°C° 0 mm 1 mps 720 mmHg 78%
    11:00 +31°C° 0 mm 1 mps 719 mmHg 71%
    12:00 +33°C° 0 mm 1 mps 719 mmHg 63%
    13:00 +34°C° 0 mm 1 mps 718 mmHg 55%
    14:00 +34°C° 0 mm 1 mps 718 mmHg 57%
    15:00 +34°C° 0 mm 1 mps 717 mmHg 58%
    16:00 +33°C° 0 mm 1 mps 717 mmHg 60%
    17:00 +32°C° 0 mm 1 mps 717 mmHg 66%
    18:00 +30°C° 0 mm 1 mps 718 mmHg 72%
    19:00 +29°C° 0 mm 1 mps 718 mmHg 79%
    20:00 +28°C° 0 mm 1 mps 719 mmHg 82%
    21:00 +28°C° 0 mm 1 mps 719 mmHg 85%
    22:00 +27°C° 0 mm 2 mps 719 mmHg 89%
    23:00 +26°C° 0 mm 2 mps 719 mmHg 90%

    24 April, Wednesday

    Time Temperature Precipitation Wind Pressure Humidity
    00:00 +26°C° 0 mm 2 mps 719 mmHg 92%
    01:00 +26°C° 0 mm 2 mps 718 mmHg 93%
    02:00 +26°C° 0 mm 2 mps 718 mmHg 94%
    03:00 +25°C° 0 mm 1 mps 718 mmHg 94%
    04:00 +25°C° 0 mm 1 mps 718 mmHg 94%
    05:00 +25°C° 0 mm 1 mps 719 mmHg 94%
    06:00 +26°C° 0 mm 1 mps 719 mmHg 93%
    07:00 +26°C° 0 mm 1 mps 720 mmHg 92%
    08:00 +28°C° 0 mm 1 mps 720 mmHg 83%
    09:00 +30°C° 0 mm 1 mps 720 mmHg 74%
    10:00 +32°C° 0 mm 1 mps 720 mmHg 65%
    11:00 +34°C° 0 mm 1 mps 720 mmHg 59%
    12:00 +35°C° 0 mm 1 mps 719 mmHg 53%
    13:00 +37°C° 0 mm 1 mps 718 mmHg 48%
    14:00 +36°C° 0 mm 1 mps 718 mmHg 50%
    15:00 +36°C° 0 mm 1 mps 717 mmHg 51%
    16:00 +35°C° 0 mm 1 mps 717 mmHg 53%
    17:00 +33°C° 0 mm 1 mps 717 mmHg 62%
    18:00 +31°C° 0 mm 1 mps 718 mmHg 70%
    19:00 +29°C° 0 mm 2 mps 718 mmHg 78%
    20:00 +29°C° 0.1 mm 2 mps 719 mmHg 82%
    21:00 +28°C° 0.1 mm 2 mps 719 mmHg 86%
    22:00 +27°C° 0.1 mm 2 mps 719 mmHg 90%
    23:00 +27°C° 0.1 mm 2 mps 719 mmHg 91%
    Show more